ECMWFFLT1_500_spd_012.txt.gz
Wind_Speed
68 67 67 65 61 57 56 55 53 51 51 50 49 48 48 49 49 49 49 50 51 52 52 52 51 50 50 50 50 49 49 49 48 47 49 54 55 52 50 49 51 52 52 52 52 53 56 59 61 62 62 62 62 63 64 64 64 66 68 69 69 70 71
69 67 66 67 66 61 57 56 56 54 52 51 51 51 51 51 50 49 49 49 50 50 51 52 52 53 53 53 52 52 51 49 48 48 50 54 55 53 51 51 53 55 54 53 53 55 57 59 61 62 62 62 63 63 63 62 63 66 68 69 69 69 70
68 67 67 68 68 64 59 57 56 56 54 53 53 53 53 52 51 50 49 49 49 49 48 48 48 50 52 53 54 53 52 50 48 49 52 54 55 54 52 53 55 56 56 55 54 56 58 59 62 61 61 62 63 63 62 61 62 65 66 67 68 68 68
66 65 65 65 65 63 60 58 57 57 56 55 55 54 55 54 53 51 50 49 48 48 47 45 44 45 47 49 52 53 53 51 49 50 53 54 55 55 54 55 56 57 57 56 55 57 59 61 62 60 59 61 62 62 62 61 62 64 65 66 67 67 66
67 63 61 60 60 60 59 58 58 58 57 56 56 56 56 56 54 52 49 48 47 46 46 45 43 43 43 45 49 52 53 51 49 51 54 54 55 55 56 56 57 58 58 58 57 57 59 61 62 59 57 60 62 62 62 61 62 64 64 64 66 66 64
76 68 62 59 59 59 59 60 60 59 57 56 56 57 57 56 55 53 49 45 44 43 42 42 42 42 42 43 45 50 52 51 49 50 51 53 54 56 58 58 58 59 59 59 58 58 59 62 61 58 57 59 61 61 61 60 61 62 63 63 64 64 62
85 77 70 66 64 60 59 60 61 60 58 57 58 58 58 57 56 53 48 44 42 41 40 40 41 42 42 42 44 47 51 51 49 48 49 51 53 55 57 59 59 59 59 58 58 57 59 61 59 57 57 58 59 60 61 61 61 61 62 63 63 62 59
85 84 78 74 70 67 62 60 60 60 59 59 60 60 59 58 55 51 46 43 42 40 39 40 41 43 44 44 45 47 49 51 51 49 49 50 53 55 57 58 58 57 57 57 56 57 59 59 57 56 57 57 57 59 60 61 63 62 62 62 61 59 56
77 82 81 78 73 70 68 63 59 59 59 60 61 61 59 57 54 50 46 43 42 42 42 43 43 45 45 46 48 48 48 51 51 51 51 52 54 55 56 56 55 54 55 55 56 57 58 57 55 56 56 55 56 58 59 61 63 62 62 62 60 57 54
67 71 73 72 68 65 66 63 59 59 59 60 61 60 58 55 51 49 46 44 43 42 43 44 46 47 48 49 51 49 48 50 51 51 53 54 54 54 53 52 51 52 54 55 55 56 56 55 54 54 54 54 55 58 59 61 62 62 63 63 60 55 51
58 60 61 62 62 62 62 61 59 59 59 58 58 56 55 51 49 47 46 45 44 43 44 45 46 48 50 51 52 50 48 49 50 51 52 53 52 51 51 50 50 52 55 55 54 53 54 53 52 52 53 54 55 57 59 60 61 62 63 63 60 54 47
50 50 51 56 59 59 60 60 60 61 60 58 56 54 52 50 49 48 47 47 47 46 46 46 48 49 50 51 52 49 47 47 49 50 51 51 50 50 50 49 51 53 54 53 52 52 53 52 52 51 52 54 56 57 58 59 60 62 63 63 60 54 46
42 41 42 50 56 55 55 57 59 62 62 60 57 54 52 51 50 49 48 47 45 45 46 47 48 50 50 51 51 47 44 46 49 50 50 49 48 49 49 50 52 53 52 50 50 51 51 51 50 51 51 53 56 58 58 58 60 62 63 62 59 53 46
36 35 35 43 50 51 49 49 53 58 61 59 57 55 53 52 50 48 46 45 43 43 45 47 48 50 50 50 49 45 43 47 50 51 49 48 48 49 49 50 52 52 51 50 50 50 50 49 49 50 51 53 56 58 58 59 60 61 62 60 56 51 46
33 31 32 39 45 47 46 45 46 51 55 56 56 54 52 49 48 46 45 46 44 44 45 47 48 48 48 47 45 43 44 48 51 50 49 48 48 49 49 51 52 51 50 50 50 50 49 48 48 50 51 53 56 57 57 59 60 61 61 58 53 49 45
30 30 31 35 38 39 40 41 44 46 49 52 52 51 48 45 44 44 43 44 44 45 47 47 46 45 43 43 42 42 44 48 50 50 48 47 47 47 49 51 51 50 49 49 50 49 47 47 48 49 51 54 56 56 57 59 59 59 59 56 51 47 43
27 28 28 29 30 31 34 38 42 44 47 48 47 46 45 44 44 43 42 41 42 45 47 45 42 41 40 40 41 43 45 47 49 49 48 46 46 46 49 50 49 49 48 48 49 47 46 46 48 49 52 54 55 56 58 59 58 57 57 54 50 46 40
23 25 24 24 26 29 32 36 39 42 44 45 44 43 44 43 44 44 43 42 43 44 44 42 39 38 38 40 42 43 44 46 48 48 47 46 46 47 48 48 47 47 48 48 47 45 45 46 47 49 52 53 54 56 58 59 57 56 54 51 49 46 38
21 22 21 23 26 28 31 36 40 41 41 42 42 41 41 41 41 43 44 43 41 40 38 37 37 36 37 40 41 42 43 45 45 46 45 45 45 45 46 46 45 45 46 46 44 43 44 46 47 50 52 53 54 57 58 58 57 55 53 50 48 45 39
20 21 23 25 25 25 29 36 41 41 40 40 40 39 40 40 40 41 41 38 35 32 31 33 34 35 35 37 39 40 40 41 41 42 42 41 41 42 43 43 43 44 44 43 41 41 43 45 47 49 51 52 54 56 57 57 55 53 51 50 46 43 39
21 22 24 24 23 23 26 32 37 38 37 37 36 36 38 39 39 37 35 31 27 26 27 31 33 34 33 34 35 36 35 35 35 36 36 37 37 39 40 41 41 42 42 40 39 40 42 44 46 48 50 52 54 56 56 55 53 51 50 48 45 40 37
23 23 23 22 22 23 25 27 30 32 31 31 31 31 33 34 32 30 27 25 24 24 26 30 32 32 30 30 30 30 29 29 30 31 32 34 35 36 37 39 40 40 39 37 37 39 41 43 45 47 49 52 54 55 54 53 51 50 49 47 43 39 37
22 23 23 21 20 22 23 24 24 24 24 26 27 27 27 27 25 23 23 23 23 24 25 28 29 28 27 26 25 25 25 25 26 27 29 31 32 34 35 37 39 38 36 35 36 38 40 42 44 46 48 51 53 53 52 50 49 49 48 44 41 38 37
21 23 23 20 18 19 21 23 23 22 22 24 26 25 24 22 21 21 22 22 21 22 23 24 25 24 23 22 22 22 22 23 24 26 27 29 31 33 35 36 36 35 33 34 36 37 39 41 43 45 47 50 51 50 49 48 47 47 46 42 37 36 36
18 20 21 19 18 18 19 20 21 21 22 24 25 23 21 21 20 21 21 20 19 19 19 20 21 21 21 20 20 21 22 23 24 26 28 30 32 33 35 34 33 32 32 34 35 37 39 40 42 44 47 49 49 47 45 45 45 45 43 38 35 34 35
15 17 18 18 18 17 17 18 19 20 21 22 22 21 20 20 21 21 20 18 17 16 16 17 18 18 18 19 19 21 22 24 25 27 29 31 32 33 33 32 31 31 31 33 35 36 38 39 41 43 46 47 46 43 42 42 42 42 40 35 33 34 35
13 13 14 14 14 16 17 17 18 19 19 19 18 18 18 19 20 20 19 17 15 15 16 16 16 15 16 17 18 20 22 23 25 27 29 30 31 31 30 29 29 30 31 32 34 35 37 38 40 43 45 44 42 40 40 40 40 40 36 32 30 32 34
11 11 12 12 14 16 17 17 17 18 18 17 17 17 17 17 18 18 18 16 16 17 17 16 15 15 15 16 17 19 20 22 24 26 28 30 30 29 28 27 27 29 30 32 33 35 36 38 40 42 43 41 39 38 37 38 39 38 34 29 28 30 32
11 12 13 14 14 15 15 16 16 16 15 15 17 17 16 16 16 16 16 16 16 17 17 16 15 15 15 15 16 18 20 22 24 26 28 28 27 26 25 26 27 29 30 31 33 34 36 38 40 42 42 39 37 35 35 35 37 37 33 28 27 29 30
11 13 15 15 14 14 14 14 14 14 14 15 16 17 16 16 15 15 15 16 16 16 16 15 14 14 14 15 17 18 21 22 24 26 27 26 25 24 24 25 27 28 29 30 32 33 35 38 40 41 40 37 35 34 33 33 34 34 31 26 25 29 30
11 12 14 14 14 14 14 14 14 14 14 15 15 16 17 17 16 16 16 16 15 15 15 14 14 14 14 16 17 19 21 23 24 25 24 23 22 22 23 25 26 27 28 30 31 33 35 37 39 39 38 35 34 32 32 31 32 32 30 25 23 26 30
9 12 13 14 15 15 14 15 16 15 15 15 15 16 17 17 17 17 16 15 15 15 16 15 14 14 15 17 18 20 22 22 23 23 22 21 20 21 23 24 25 26 27 29 31 32 34 37 38 37 35 33 32 31 31 31 30 31 30 25 21 23 27
3 7 10 12 14 15 16 16 16 16 16 15 15 16 17 17 17 17 16 16 15 16 16 15 15 15 16 18 19 20 21 21 21 21 20 19 19 20 23 24 24 26 27 28 30 32 34 37 37 36 33 32 30 29 30 30 29 29 29 26 22 20 23
3 2 5 8 10 12 13 15 16 17 17 18 17 17 17 18 18 17 17 17 17 17 17 16 16 16 18 19 19 20 20 20 20 19 18 18 19 21 22 23 24 25 27 28 29 31 34 36 36 34 32 31 29 28 29 29 28 28 28 26 22 20 20
5 2 2 4 6 8 11 13 15 16 18 20 20 20 19 19 19 18 18 18 18 18 17 16 17 18 19 20 20 20 20 19 18 17 16 17 19 21 22 23 24 25 26 27 29 31 33 35 34 32 30 29 28 27 27 27 27 27 27 26 23 19 19
8 4 2 2 3 5 8 11 14 16 19 21 22 22 21 20 19 18 17 17 17 17 16 16 17 19 19 20 19 19 18 17 15 15 16 18 20 21 22 23 24 24 25 26 28 31 33 34 33 30 29 28 27 26 26 26 26 26 25 25 24 19 17

ECMWFFLT1_500_spd_018.txt.gz
Wind_Speed
74 76 79 81 82 82 82 82 83 82 79 76 77 79 81 84 87 87 85 83 78 70 65 64 64 62 59 58 57 57 56 56 57 58 57 57 56 56 55 55 54 54 54 54 54 55 56 57 58 57 57 56 56 57 58 58 58 58 58 59 59 59 61
66 70 73 77 79 81 81 80 81 83 83 79 77 77 78 80 82 85 86 85 82 76 69 65 65 65 63 62 61 60 59 58 57 57 56 55 54 54 53 53 53 53 52 52 53 56 58 58 58 59 58 57 57 58 59 59 59 59 59 59 60 61 62
58 62 66 70 74 77 79 79 79 81 83 83 81 78 78 78 79 81 83 85 84 81 74 68 66 67 67 66 65 62 61 60 58 56 55 54 53 53 52 51 51 51 51 51 52 54 56 57 57 58 59 59 59 58 59 60 59 60 60 61 62 63 63
49 54 59 63 68 72 76 78 79 79 80 82 83 81 79 78 79 79 80 81 82 81 77 71 68 67 68 69 68 64 62 61 59 57 56 56 54 52 50 49 49 49 49 49 50 51 53 54 56 57 58 59 59 59 59 60 60 61 61 62 64 65 64
41 45 49 54 60 66 71 76 79 80 81 81 81 81 80 80 80 80 79 79 79 78 77 75 71 68 69 71 70 66 63 62 61 59 57 56 54 51 49 48 48 49 49 49 50 51 52 54 55 56 57 58 58 59 59 60 61 62 62 64 65 66 65
38 41 43 46 50 56 62 67 73 77 81 82 83 82 82 81 82 82 81 80 79 78 77 75 72 71 71 72 71 67 64 63 62 60 57 56 55 52 49 49 49 50 50 50 50 51 52 53 54 55 57 58 58 59 59 60 61 61 62 64 66 66 66
40 42 43 44 46 49 53 58 63 68 73 78 81 83 84 83 83 84 83 81 80 79 77 75 73 72 73 73 71 67 64 64 64 62 59 58 58 55 52 51 51 51 50 50 50 51 51 51 52 53 53 54 55 55 56 58 58 59 61 63 64 65 66
44 45 46 46 47 48 51 54 57 60 64 68 73 77 81 82 83 84 85 84 82 80 78 76 75 74 73 73 72 67 63 64 65 63 60 58 58 57 55 53 52 51 50 49 50 50 50 50 49 48 48 49 49 49 50 52 53 55 58 61 63 64 65
48 49 49 49 49 49 51 53 55 57 60 63 66 69 73 76 78 81 83 85 84 82 79 77 75 74 74 74 72 68 64 64 64 63 61 60 59 58 56 54 52 51 51 51 51 51 50 48 46 46 46 46 46 47 48 50 52 54 57 59 60 62 65
50 51 51 51 50 50 51 52 53 54 56 59 61 63 66 68 71 74 78 82 85 82 79 77 75 74 74 74 72 68 64 62 62 61 60 61 61 59 57 55 54 53 53 52 51 50 48 46 44 44 44 45 46 47 49 51 53 55 57 58 58 60 63
51 51 51 51 49 48 48 48 48 49 50 52 54 56 59 61 64 67 71 76 82 82 79 76 74 73 73 73 70 67 63 61 59 59 59 61 62 60 58 58 57 55 53 50 48 46 44 42 41 42 43 44 46 48 50 53 55 57 58 58 57 58 60
50 50 49 47 45 44 43 43 42 42 42 42 43 46 49 52 56 60 64 68 74 79 79 76 74 72 70 69 67 65 63 60 59 58 58 60 62 61 60 60 58 54 50 47 46 44 42 41 40 41 43 45 47 49 52 55 57 59 58 57 57 56 57
49 46 42 39 38 38 38 37 37 36 35 34 34 37 40 44 48 52 56 60 65 72 78 76 74 72 69 66 64 63 61 61 60 58 58 60 60 59 59 58 55 52 49 47 45 44 43 43 42 43 45 46 49 52 55 58 60 59 58 56 56 56 57
43 38 34 33 33 34 34 33 34 33 32 32 32 33 36 39 42 45 48 53 57 64 73 75 72 71 69 66 63 62 60 60 60 59 58 58 56 53 54 54 53 51 49 47 45 44 43 43 43 44 46 49 52 54 58 60 60 58 57 56 55 56 58
34 30 29 29 31 32 32 32 32 31 30 30 29 29 31 32 35 38 41 46 51 56 64 70 70 68 67 65 63 62 61 60 59 58 57 56 52 49 49 50 50 49 48 47 44 43 43 44 46 48 50 52 55 57 60 61 59 57 56 55 54 56 59
27 26 26 28 30 31 30 29 29 27 26 26 24 23 23 22 25 29 33 38 43 47 54 62 64 64 63 62 61 61 60 59 58 56 55 54 50 46 46 47 48 48 47 46 44 44 45 47 50 51 52 54 57 60 61 59 56 55 55 54 55 57 59
25 25 26 28 29 29 27 25 25 23 22 20 19 20 19 17 19 25 29 32 36 40 45 52 56 57 57 56 57 58 58 58 57 56 55 51 46 44 45 47 48 47 46 45 44 45 47 49 51 52 54 57 60 61 58 54 53 53 54 54 56 57 57
24 25 26 27 26 25 23 21 19 19 17 16 16 18 17 15 19 25 28 29 32 35 39 44 49 51 51 52 54 55 54 55 55 54 52 48 45 45 46 47 48 47 45 44 44 45 47 50 51 54 57 59 59 57 53 51 52 53 54 55 56 55 56
20 21 24 24 22 21 19 15 15 15 13 13 15 17 16 16 21 25 27 30 32 34 36 39 42 45 47 47 48 50 51 51 50 50 48 45 45 45 45 45 46 45 44 45 44 45 48 51 53 56 58 57 55 51 50 51 52 53 54 54 54 55 57
17 19 20 18 17 16 13 11 12 12 12 13 13 13 14 17 21 24 28 31 34 34 35 36 37 40 42 43 44 47 48 47 46 45 44 43 43 43 42 42 43 43 44 44 44 46 49 52 53 54 53 51 49 49 50 51 52 52 52 52 53 56 58
17 18 15 14 14 11 9 10 12 12 12 12 12 12 16 19 22 24 26 28 30 32 34 35 36 37 40 41 42 43 43 42 42 41 41 41 40 39 39 39 39 41 42 43 44 47 50 52 52 50 48 47 48 49 50 50 49 49 50 51 54 56 57
14 12 11 12 11 8 8 11 13 13 13 13 13 14 17 19 22 25 27 27 28 29 31 33 35 36 37 38 39 38 38 37 37 37 38 38 38 37 37 37 38 39 41 42 44 47 50 50 49 46 45 46 48 48 48 47 47 48 50 52 53 54 55
8 9 12 11 9 9 11 12 13 14 15 16 16 16 17 18 20 22 26 29 30 29 31 32 33 35 36 36 35 34 33 32 32 32 33 34 35 36 37 38 39 40 41 43 46 47 48 47 45 44 45 46 46 45 45 45 46 47 49 50 51 53 54
6 10 11 7 7 10 12 13 14 16 16 17 18 19 21 22 21 20 23 26 27 28 29 30 31 32 32 31 30 29 28 27 28 29 30 32 34 37 39 40 40 42 43 45 46 46 45 43 42 43 44 44 43 43 43 44 45 46 47 48 50 53 55
8 10 9 7 5 8 14 14 14 15 16 16 17 19 21 23 24 23 22 22 22 23 24 25 25 25 25 24 24 24 24 25 27 28 30 32 35 38 39 40 41 42 43 44 44 43 41 40 41 41 41 41 41 41 41 42 42 43 45 47 50 53 54
12 12 10 7 5 10 15 15 15 15 15 14 15 16 17 19 20 20 18 19 20 20 20 19 19 19 19 20 20 21 23 25 28 30 31 33 35 37 38 39 40 40 40 39 38 38 38 38 38 39 39 39 39 38 39 39 40 42 45 47 49 51 53
9 9 9 7 7 12 15 15 16 15 14 13 13 14 15 15 16 15 16 17 18 17 15 15 15 16 17 18 19 22 25 27 29 31 33 34 35 36 37 37 37 36 35 34 34 34 35 35 36 36 36 36 35 35 36 38 40 42 45 46 48 49 50
6 6 7 8 10 14 15 15 15 14 13 11 10 11 13 14 14 14 15 15 14 13 13 13 14 15 16 18 20 23 25 27 29 30 32 32 33 34 33 33 32 32 31 31 31 32 33 33 33 33 32 32 32 34 36 38 40 42 43 45 45 45 45
7 7 7 8 11 13 13 13 12 11 10 10 11 13 14 14 13 13 12 11 11 11 12 14 15 16 16 16 18 19 21 23 25 26 27 28 29 29 30 30 30 29 29 30 30 31 31 30 30 29 29 30 32 34 36 38 39 41 42 42 43 42 40
6 6 6 7 9 9 9 9 9 10 10 11 12 13 14 13 12 11 10 11 11 12 13 15 16 16 16 15 15 16 17 18 19 21 22 23 24 26 27 27 27 27 28 28 28 28 27 26 26 27 28 30 32 34 36 38 39 40 41 40 40 39 38
3 3 4 5 7 8 8 8 9 10 10 10 10 10 10 11 11 11 12 12 13 13 14 15 15 15 14 14 14 14 15 16 16 17 18 19 21 22 23 24 25 25 26 25 25 24 23 23 25 26 29 31 33 34 36 38 39 39 40 39 38 37 37
4 3 2 3 5 7 8 8 9 9 9 9 8 8 10 11 13 14 15 13 12 12 13 14 14 13 13 13 14 14 14 14 14 15 16 17 18 20 21 22 22 22 22 22 21 21 21 23 25 27 29 31 33 34 36 37 38 38 38 38 37 37 36
6 7 4 2 4 6 8 9 9 9 9 9 8 9 11 13 15 16 15 13 12 12 13 13 13 13 13 14 15 14 14 14 14 14 15 16 17 18 19 19 19 19 19 18 18 19 21 24 26 28 29 31 33 34 36 37 37 37 37 37 37 37 37
4 7 8 6 3 4 6 8 9 9 9 9 9 10 12 13 13 14 14 13 13 13 13 13 13 13 14 15 15 14 13 13 13 13 14 15 16 17 17 17 17 16 16 17 18 20 23 25 27 28 30 31 33 34 35 36 36 36 36 36 37 37 37
4 3 6 9 8 7 6 7 8 9 9 10 11 12 13 13 13 13 14 14 14 13 13 13 13 13 14 14 14 13 13 13 13 14 14 15 16 16 16 15 15 15 15 17 19 22 24 25 27 28 30 31 33 34 34 35 35 35 36 36 36 37 37
6 4 3 5 8 10 11 10 10 10 11 12 12 13 14 14 13 14 14 14 14 14 13 13 13 14 15 15 14 14 14 14 14 14 14 15 15 15 14 13 14 14 16 18 20 23 25 26 27 29 30 32 33 33 33 34 34 34 35 35 36 37 37

ECMWFFLT1_500_spd_021.txt.gz
Wind_Speed
48 55 62 71 79 87 95 100 100 98 96 93 90 87 85 84 84 84 85 86 87 88 88 86 85 84 83 82 81 78 76 75 72 70 69 68 67 67 67 66 65 63 62 60 58 59 61 63 65 65 65 65 64 65 65 65 65 66 66 65 65 65 64
38 43 50 57 65 73 81 89 94 97 96 95 94 92 90 88 86 84 83 84 84 85 85 85 85 85 85 85 83 81 78 76 73 71 70 68 67 67 67 66 64 62 60 57 56 57 59 61 62 63 62 62 62 62 62 62 63 63 63 63 63 64 64
36 36 39 44 50 57 65 73 81 87 91 92 92 92 92 91 89 87 85 84 84 84 84 83 81 80 82 83 84 83 81 78 75 73 71 69 68 67 68 68 66 63 60 57 55 55 57 59 60 60 60 59 59 59 59 59 59 59 60 60 61 62 63
36 37 37 37 39 42 48 54 62 70 77 82 85 86 87 88 88 88 87 86 84 84 85 84 83 80 79 79 80 80 81 80 78 76 75 73 70 68 69 69 67 65 62 59 57 55 56 58 59 57 56 57 57 56 56 56 56 57 57 58 59 60 62
34 36 36 37 37 38 39 42 46 50 57 63 70 74 78 80 82 83 84 84 83 83 84 84 84 84 83 81 80 79 78 78 79 78 77 76 73 71 70 70 68 67 65 62 60 58 58 59 59 57 55 55 55 55 55 55 56 56 57 57 57 59 60
34 34 35 36 37 38 39 40 41 43 46 50 54 59 64 69 73 76 79 80 81 81 82 83 83 84 85 85 83 81 79 78 78 78 78 78 77 74 72 70 69 68 67 63 61 61 60 60 60 57 55 54 54 53 53 53 53 54 55 55 54 55 57
35 35 36 36 37 38 39 40 41 43 45 47 50 53 56 60 64 68 72 75 77 79 81 83 83 84 85 85 84 82 81 79 79 79 80 81 80 77 75 72 70 69 67 64 63 62 62 62 61 59 56 54 54 52 51 50 49 49 51 52 53 55 56
36 37 37 38 39 40 40 41 42 43 45 47 49 52 54 57 60 63 66 69 73 77 79 82 84 85 85 85 84 82 81 79 79 79 81 82 82 80 78 75 71 69 67 65 64 63 64 65 63 59 56 55 54 52 51 50 48 47 48 51 53 54 55
38 38 38 39 40 41 42 43 43 45 46 48 50 52 53 55 57 60 62 65 69 74 79 81 83 85 85 85 84 82 81 79 78 79 81 83 83 81 79 76 71 68 67 65 64 65 67 68 64 59 57 57 55 54 53 50 47 47 48 50 51 52 53
40 40 39 40 41 42 43 44 45 47 50 51 52 53 54 55 56 58 59 61 64 68 74 79 82 83 84 85 84 83 82 80 79 80 81 82 83 81 78 77 72 67 65 64 64 66 67 67 64 61 59 58 57 57 55 50 47 47 50 51 51 50 49
41 41 41 41 42 43 45 46 48 50 52 54 55 56 56 56 56 57 58 60 61 63 66 72 77 81 83 84 84 84 83 81 80 80 80 80 81 78 75 74 71 66 64 64 64 66 66 66 65 62 61 59 57 55 53 49 48 50 52 52 50 47 45
42 41 42 42 43 45 47 49 51 52 54 56 56 57 57 58 57 57 57 58 60 62 63 65 69 74 79 83 84 84 84 82 80 80 79 78 77 75 72 70 68 65 64 65 65 65 65 65 65 63 61 60 57 53 52 51 50 53 54 52 49 45 45
40 40 42 44 45 48 49 51 52 54 55 55 54 53 54 55 54 54 54 54 56 59 62 63 65 68 72 77 81 83 85 84 81 80 79 77 74 73 70 68 67 66 65 65 64 64 63 63 62 62 62 61 58 55 54 53 53 54 54 51 48 46 46
39 41 43 45 47 49 50 51 51 52 51 50 49 48 47 47 47 47 47 46 46 49 53 58 62 65 67 70 74 79 83 84 83 81 80 77 73 71 69 66 66 66 66 65 63 61 60 58 58 59 60 61 59 56 54 53 53 53 51 49 48 47 48
39 41 42 43 44 45 45 44 44 43 42 42 41 40 40 40 40 38 36 36 37 40 45 50 55 60 63 66 68 72 77 82 84 82 80 78 74 71 69 66 66 66 64 64 62 60 57 56 55 56 57 58 58 55 54 53 53 52 51 49 49 48 50
36 36 36 36 36 35 34 34 34 34 34 34 34 34 34 33 30 28 27 29 32 37 41 45 49 52 55 59 63 66 70 76 81 83 80 77 74 72 69 68 66 64 62 62 61 59 57 55 54 55 56 56 55 54 53 53 52 51 51 50 49 50 51
27 26 26 26 27 27 26 26 27 29 30 30 29 27 26 25 23 23 24 26 30 33 36 39 42 44 48 52 56 60 63 69 77 81 79 76 72 70 68 67 64 61 60 60 59 57 55 53 53 54 54 54 53 52 52 52 52 52 51 50 50 51 53
18 19 20 21 22 22 23 23 25 26 26 24 23 22 22 21 21 22 23 25 27 29 30 33 37 40 43 47 50 54 58 63 70 75 76 72 68 66 65 64 60 57 56 56 55 53 51 49 50 51 51 50 50 50 50 51 52 51 52 52 53 53 55
15 17 19 19 19 21 22 21 19 19 19 19 19 19 20 19 19 20 22 23 24 24 23 25 29 33 37 41 44 48 53 57 63 68 69 66 64 63 63 60 56 52 51 50 49 48 47 47 48 48 47 46 46 47 48 50 51 52 53 54 54 55 57
18 18 18 18 19 20 19 14 12 14 15 16 16 17 17 16 17 18 19 20 20 20 18 17 19 23 28 32 36 40 45 49 54 60 62 61 60 60 57 53 50 47 46 45 46 45 45 45 44 44 44 44 45 46 48 49 50 52 53 53 54 57 59
19 18 16 16 17 15 12 10 10 11 12 13 14 15 14 13 12 13 15 17 18 17 16 16 18 21 24 27 31 34 36 39 45 52 56 57 56 54 50 47 45 43 42 42 43 42 41 41 42 42 43 44 45 47 48 49 50 51 51 53 55 58 59
17 14 11 12 13 10 8 8 8 8 9 9 10 10 8 6 7 10 13 15 15 12 11 15 20 24 25 26 28 30 31 33 39 46 50 50 49 46 44 44 43 40 39 39 38 38 38 39 40 41 42 43 45 46 48 49 49 50 52 54 57 58 58
13 11 8 8 9 8 8 8 9 8 7 5 4 3 4 6 7 9 11 13 13 11 10 11 16 22 26 28 28 30 31 33 35 40 43 44 43 42 41 40 39 38 37 37 36 36 36 37 38 39 40 43 45 47 48 48 49 51 54 55 57 57 58
10 9 7 6 6 7 8 10 9 8 5 2 1 2 4 5 6 8 10 12 12 12 12 12 14 16 21 26 29 30 30 31 33 36 37 38 39 38 36 36 36 36 36 35 35 35 35 35 36 38 40 42 44 46 47 49 51 53 54 55 55 56 56
8 7 6 6 6 7 8 8 7 6 4 3 3 4 5 6 6 6 8 9 10 11 12 14 15 15 17 22 27 29 30 31 32 33 34 34 34 33 32 33 34 34 35 35 34 34 34 35 36 38 39 41 44 46 49 51 52 53 53 54 54 54 54
6 8 8 8 9 9 6 3 4 4 4 4 4 6 8 8 8 8 7 6 7 9 10 12 14 15 16 18 22 26 29 30 31 32 33 33 32 31 31 31 32 32 32 33 33 34 35 36 37 39 41 44 46 49 50 51 51 52 52 52 51 51 51
6 9 10 10 9 7 3 2 3 4 5 6 6 8 9 10 11 10 8 6 6 8 11 12 13 14 15 16 18 21 24 26 26 27 28 28 28 27 27 28 28 29 29 31 33 35 37 38 40 42 44 46 48 49 49 50 50 50 49 48 48 48 49
5 7 7 7 6 4 2 3 4 6 7 6 7 8 9 11 10 8 6 5 7 9 12 13 14 14 14 15 16 18 20 20 21 22 23 23 24 25 26 26 27 29 31 33 35 37 39 40 42 44 45 46 46 47 47 47 46 45 45 45 46 46 45
4 5 5 4 4 4 4 5 5 6 5 4 4 5 7 9 8 7 7 8 9 9 10 11 12 12 12 13 14 15 16 17 18 20 21 23 24 25 26 27 28 30 31 33 34 36 37 38 40 42 42 43 43 43 43 42 42 43 43 43 43 42 42
4 3 3 5 5 5 5 5 4 4 3 4 5 6 8 9 9 9 10 10 10 9 9 9 10 10 11 11 12 12 13 15 17 19 20 21 22 23 24 25 26 27 28 30 31 32 34 36 37 39 39 39 39 39 40 40 41 41 40 39 39 40 42
2 2 2 4 4 4 3 3 3 3 5 7 7 8 9 10 10 11 11 11 10 9 8 7 8 8 9 10 10 11 12 13 14 15 17 18 18 19 21 22 23 25 26 28 29 31 32 34 35 36 36 36 37 37 38 38 37 36 36 37 38 41 42
1 1 1 2 1 1 0 1 3 5 7 8 8 7 6 6 7 8 9 9 8 8 8 7 7 8 9 10 11 11 10 9 10 11 12 13 14 16 18 20 22 24 25 27 28 30 31 32 33 33 34 35 35 35 34 33 33 34 35 37 40 41 42
3 2 2 3 3 2 2 3 4 6 7 6 5 4 3 3 3 4 4 5 6 7 7 7 7 8 9 10 10 10 8 7 7 7 9 11 13 15 17 19 21 23 24 26 27 28 29 30 31 32 32 32 31 30 30 30 32 34 37 38 39 40 40
4 3 3 3 3 3 3 2 3 4 4 3 2 1 1 1 2 2 2 3 5 6 7 7 7 8 9 9 9 8 7 7 7 8 9 11 12 14 16 18 19 21 22 24 25 26 27 28 29 29 28 27 27 27 29 31 33 35 37 37 38 38 39
5 4 3 3 3 2 2 1 1 1 1 2 2 3 3 3 3 3 3 4 5 6 7 7 8 8 9 9 9 8 8 8 8 9 10 11 12 13 15 16 17 19 20 22 23 24 25 25 25 24 24 25 26 28 30 32 34 35 35 36 37 38 40
7 4 2 3 4 4 3 2 2 1 2 3 4 5 5 5 5 4 4 5 6 7 8 9 9 9 9 9 9 9 9 9 9 9 10 11 12 13 14 15 16 18 19 20 21 21 21 21 21 22 24 26 28 30 31 32 33 34 35 36 38 39 41

ECMWFFLT1_500_spd_027.txt.gz
Wind_Speed
34 34 34 34 33 32 32 34 35 37 39 39 42 48 57 67 77 86 93 99 103 102 100 96 94 91 86 81 81 85 89 90 88 88 87 83 78 77 80 83 85 87 89 87 83 79 75 73 75 75 72 68 66 66 67 67 65 64 63 62 61 61 61
34 34 34 33 33 33 32 31 32 33 34 35 37 40 46 55 65 73 81 89 96 100 101 99 97 94 91 87 82 81 84 88 89 88 89 90 89 84 81 81 81 83 86 86 81 77 76 75 76 76 74 72 71 70 70 69 68 66 65 64 63 63 63
33 33 33 32 33 33 33 32 32 31 31 31 32 33 37 44 53 62 69 77 85 92 97 99 99 97 94 92 89 84 82 83 86 87 87 88 90 90 88 85 83 82 83 84 82 80 79 77 75 75 75 75 75 74 73 71 69 68 68 66 65 64 65
32 32 32 32 33 32 32 33 33 33 32 31 30 30 31 35 42 50 59 66 73 81 88 94 97 97 96 95 93 89 86 83 83 84 85 85 86 87 88 88 88 85 82 81 81 80 78 76 76 78 79 80 80 78 74 71 70 69 68 67 66 65 66
32 32 31 32 32 31 31 32 33 33 33 33 32 31 29 29 33 39 47 55 63 70 77 85 90 94 96 96 96 93 90 87 85 83 83 84 84 85 86 86 87 86 83 81 80 80 80 80 82 82 82 83 81 78 75 72 70 70 68 67 66 66 66
32 32 32 32 32 31 31 32 32 33 33 33 33 32 31 29 29 31 36 43 51 59 66 73 80 86 90 93 95 95 93 90 88 86 86 85 85 85 85 84 84 86 87 87 87 86 85 85 85 85 85 85 82 79 76 72 70 70 69 68 67 67 68
32 32 32 32 32 32 32 32 32 32 32 32 32 32 31 31 29 29 31 35 41 48 55 61 68 75 81 85 88 91 93 93 91 89 88 88 89 89 89 87 86 86 87 88 88 85 82 81 82 82 82 81 80 77 75 73 72 73 73 72 71 70 70
31 33 33 33 33 33 33 33 33 33 32 32 32 32 31 31 31 30 30 32 35 39 45 51 57 63 70 76 80 83 86 90 92 92 91 90 90 90 91 92 91 90 89 88 87 84 82 81 81 81 80 80 79 79 78 78 78 78 78 77 74 72 71
29 32 33 33 33 33 34 34 34 34 33 33 33 34 33 32 32 32 32 32 33 35 39 44 49 54 60 66 71 76 79 82 86 90 91 92 91 91 90 90 90 90 90 91 91 90 89 88 88 87 87 87 87 86 84 82 81 81 81 79 76 75 73
26 29 32 33 33 33 34 35 35 34 34 35 35 35 35 34 33 33 34 34 34 35 37 39 43 47 52 57 62 67 71 75 79 82 85 88 90 91 91 91 90 89 88 87 87 87 87 87 87 87 88 88 87 86 84 81 80 81 81 80 78 76 75
26 27 30 32 33 32 32 33 34 34 35 36 37 37 36 36 36 36 36 36 36 36 37 38 40 42 46 50 54 59 63 67 71 75 78 81 84 86 88 90 90 90 89 87 85 83 81 80 80 81 82 81 81 81 79 78 79 80 81 80 79 78 76
26 26 28 30 31 31 31 32 33 34 36 37 38 38 38 37 37 38 38 38 39 39 40 40 41 41 43 45 48 51 55 59 63 67 70 74 78 81 83 84 85 87 88 88 87 86 83 80 77 76 76 77 77 77 76 77 78 80 80 80 79 78 76
25 25 26 27 28 30 30 31 33 34 35 37 38 39 39 40 40 40 40 41 41 41 42 43 43 43 43 43 45 46 48 51 54 57 61 65 69 73 77 79 81 82 83 84 86 87 87 85 82 79 77 75 74 74 75 76 77 78 78 78 77 76 75
22 23 24 25 26 28 29 31 33 34 35 36 37 39 40 41 41 41 41 41 42 42 43 44 45 45 46 46 47 47 48 48 49 51 53 56 58 62 66 71 75 78 80 82 84 85 85 86 87 86 83 80 77 75 74 74 75 75 76 75 74 73 73
17 18 20 20 22 24 25 28 30 31 33 34 35 37 39 40 41 41 42 42 43 44 45 45 47 47 48 49 49 50 51 52 52 53 54 54 55 56 57 60 63 67 71 76 79 82 83 84 84 85 85 84 83 80 78 77 75 74 74 73 73 72 72
13 14 15 16 17 19 20 23 25 27 29 30 32 33 35 37 38 39 41 42 44 45 46 47 48 49 50 51 52 53 54 55 57 58 58 58 57 57 57 56 57 58 60 63 67 71 76 80 82 82 82 82 82 82 82 80 79 76 74 72 71 71 71
12 14 15 15 16 17 18 20 22 24 26 28 30 32 34 35 37 38 39 41 43 44 46 47 48 49 51 52 53 54 56 58 59 61 61 61 60 60 60 59 59 58 58 58 59 61 64 70 75 79 80 80 80 79 80 80 79 78 76 73 72 71 72
9 10 11 12 13 14 15 17 19 21 22 24 26 28 30 32 33 33 34 35 37 39 40 42 43 45 47 49 50 51 54 56 58 60 61 62 62 62 62 61 61 61 61 60 59 59 59 61 65 70 74 77 78 76 75 76 77 76 75 74 73 72 72
6 6 7 9 10 11 13 15 16 18 19 20 22 23 24 24 23 22 23 24 26 27 29 31 33 36 38 40 41 44 46 49 52 54 56 58 60 61 61 61 61 62 63 62 61 60 59 59 59 62 66 72 75 75 73 71 72 72 71 71 72 71 69
6 7 8 9 11 12 14 14 15 15 15 14 13 12 11 11 11 11 13 14 16 18 19 21 23 25 27 28 30 32 34 37 40 41 43 46 49 51 52 55 58 61 63 63 62 61 60 59 59 59 61 65 69 71 70 67 66 67 67 67 68 68 65
6 7 9 10 10 10 9 8 8 7 6 5 5 5 5 6 7 9 11 14 16 16 18 19 20 21 23 23 25 27 29 30 32 33 34 37 40 42 44 47 51 56 60 62 62 61 61 60 59 57 58 60 62 64 65 63 62 62 62 62 64 64 61
6 6 6 4 2 0 1 1 1 2 3 4 4 3 2 3 4 6 8 11 13 14 16 17 18 20 22 22 23 25 27 29 31 31 32 35 39 41 43 44 45 49 54 57 58 59 59 60 58 55 54 56 58 58 59 59 59 58 57 58 60 58 55
4 2 2 3 4 5 4 2 2 3 4 4 3 2 1 1 3 4 6 6 8 10 12 13 15 17 19 21 23 25 26 30 31 30 32 36 40 41 43 45 44 44 47 50 51 54 56 56 55 53 51 53 54 55 54 54 54 54 55 56 55 52 51
4 4 4 3 4 6 6 2 3 4 4 4 3 1 1 2 3 5 6 6 7 9 10 11 12 13 15 17 18 19 21 23 23 24 29 35 37 36 37 40 40 40 41 43 45 48 50 50 50 49 49 50 51 50 49 50 51 53 54 52 50 48 49
5 4 2 2 4 5 3 2 3 3 3 3 2 1 2 3 3 4 5 7 9 10 9 9 10 11 12 13 12 13 15 16 17 20 24 27 29 30 31 33 36 37 38 39 40 41 43 45 46 46 46 47 48 47 48 49 51 51 50 46 44 45 47
3 4 4 4 3 3 3 4 3 3 3 3 2 2 3 2 2 3 4 6 7 8 8 9 9 9 9 10 9 10 11 13 16 18 15 13 17 26 30 31 33 34 34 35 35 36 38 39 40 41 42 44 45 46 47 49 49 47 44 42 43 44 46
7 7 6 5 5 4 4 4 2 1 2 2 2 2 3 2 2 2 3 4 4 4 5 7 7 7 6 7 8 9 9 9 9 10 8 7 11 18 22 25 27 28 28 29 30 31 33 34 35 37 39 41 43 44 46 46 45 44 43 43 43 43 43
8 8 7 5 4 3 2 2 2 2 2 2 2 2 2 1 1 3 5 6 7 6 5 4 4 2 2 4 6 6 7 7 6 8 10 10 9 10 14 17 19 21 23 24 25 27 28 29 30 32 34 36 38 39 41 43 43 43 43 42 41 42 42
8 8 7 5 4 3 2 2 2 2 3 3 2 2 2 2 3 4 5 6 8 9 9 8 7 6 4 3 4 5 6 6 7 8 10 9 9 10 13 16 18 20 22 23 23 23 23 24 25 27 29 31 34 36 39 41 42 42 41 40 41 42 43
10 10 9 7 7 6 4 3 4 4 5 5 4 4 4 4 5 5 5 6 7 8 8 8 7 7 7 6 5 6 7 7 8 9 10 10 11 12 13 15 17 18 20 21 21 22 22 24 25 27 29 32 34 36 37 37 38 38 38 39 41 43 45
12 12 11 10 10 9 8 8 9 9 8 8 7 6 6 6 5 5 5 5 6 7 7 6 7 7 8 9 8 8 8 9 10 12 12 12 12 12 12 13 14 16 17 18 19 21 22 24 25 26 28 30 32 33 33 34 35 37 39 41 43 44 46
12 12 12 12 11 10 9 11 13 12 11 10 8 7 6 6 5 4 4 4 5 6 6 6 7 8 9 9 10 9 9 8 9 11 12 13 13 14 14 14 14 15 16 17 18 19 20 21 22 24 26 27 29 31 33 35 37 39 41 43 44 45 46
10 11 11 12 12 11 11 12 12 12 11 9 8 6 6 5 4 3 4 5 5 5 5 6 7 8 9 9 10 10 9 9 9 9 10 10 11 12 13 14 14 15 16 16 17 18 19 21 23 24 26 28 31 33 35 37 38 40 41 42 43 44 45
11 10 9 9 10 11 11 10 10 9 8 7 6 5 5 4 3 2 3 4 5 4 4 5 7 7 7 8 8 8 8 9 9 8 8 9 9 10 11 12 13 14 15 16 18 19 21 22 24 26 28 30 32 33 35 36 37 38 39 40 41 42 43
14 12 10 9 8 8 7 7 7 7 6 6 5 6 5 4 3 2 2 3 4 5 5 5 6 7 6 6 6 7 8 8 8 7 7 8 8 9 9 10 12 13 14 16 17 19 21 23 25 26 28 29 30 31 33 34 35 36 37 38 39 40 41
17 15 13 11 10 8 6 5 4 4 4 5 5 5 5 4 3 3 2 3 3 4 5 5 5 5 5 4 5 5 6 6 6 6 6 6 7 7 8 9 11 12 14 15 17 19 20 22 23 24 25 26 27 28 30 31 32 33 34 35 36 37 38